Flag for U.S.A. Weather past 2 weeks in Glendale, Arizona, U.S.A.

Now
69 °F

Sunny.


Feels Like: 69 °F
Forecast: 56 / 80 °F
Wind: 6 mph from West

Location: Phoenix-Deer Valley Municipal Airport

Current Time: May 23, 2015 at 10:14:19 AM

Latest Report: May 23, 2015 at 9:53 AM


Visibility: 10 mi

Pressure: 29.96 "Hg

Humidity: 33%

Dew point: 39 °F

Location of GlendaleLocation

Historic Weather in Glendale — Graph

°F

Glendale temperature yesterday

Maximum temperature yesterday: 77 °F (at 2:53 PM)
Minimum temperature yesterday: 63 °F (at 5:53 AM)
Average temperature yesterday: 71 °F

Past Weeks' High & Low Weather Summary

 TemperatureHumidityPressure
High90 °F (May 11, 2:53 PM)93% (May 15, 10:53 PM)29.96 "Hg (May 15, 10:53 PM)
Low50 °F (May 9, 5:53 AM)7% (May 11, 1:53 PM)29.66 "Hg (May 11, 6:53 PM)
Average71 °F33%29.82 "Hg
* Reported May 8 8:53 AM — May 23 8:53 AM, Glendale, Weather by CustomWeather, © 2015

Note: Actual official high and low records may vary slightly from our data, if they occured in-between our weather recording intervals... More about our weather records

Advertising

Glendale weather history for previous 24 hours

 ConditionsComfort  
Time TempWeatherWind HumidityBarometerVisibility
8:53 AM
Sat, May 23
65 °FSunny.3 mph42%29.96 "Hg10 mi
7:53 AM62 °FSunny.No wind46%29.96 "Hg10 mi
6:53 AM60 °FSunny.No wind49%29.94 "Hg10 mi
5:53 AM59 °FSunny.5 mph49%29.91 "Hg10 mi
4:53 AM60 °FClear.3 mph46%29.89 "Hg10 mi
3:53 AM60 °FClear.3 mph47%29.89 "Hg10 mi
2:53 AM61 °FClear.No wind44%29.88 "Hg10 mi
1:53 AM63 °FClear.3 mph40%29.88 "Hg10 mi
12:53 AM64 °FClear.3 mph37%29.88 "Hg10 mi
11:53 PM
Fri, May 22
66 °FClear.7 mph33%29.88 "Hg10 mi
10:53 PM67 °FClear.5 mph31%29.87 "Hg10 mi
9:53 PM68 °FClear.8 mph28%29.87 "Hg10 mi
8:53 PM69 °FClear.9 mph26%29.85 "Hg10 mi
7:53 PM71 °FClear.14 mph24%29.83 "Hg10 mi
6:53 PM72 °FPassing clouds.14 mph22%29.82 "Hg10 mi
5:53 PM75 °FPassing clouds.18 mph22%29.81 "Hg10 mi
4:53 PM76 °FSunny.15 mph21%29.80 "Hg10 mi
3:53 PM77 °FSunny.17 mph23%29.80 "Hg10 mi
2:53 PM77 °FPassing clouds.16 mph24%29.81 "Hg10 mi
1:53 PM76 °FPassing clouds.14 mph27%29.80 "Hg10 mi
12:53 PM76 °FPassing clouds.14 mph26%29.81 "Hg10 mi
11:53 AM75 °FPassing clouds.17 mph28%29.83 "Hg10 mi
10:53 AM75 °FSunny.10 mph24%29.83 "Hg10 mi
Weather by CustomWeather, © 2015

See weather overviewHow to use our weather pages